Location: Newark
(44.3248°N, 23.7839°E)
Time: 17:29:15
(UTC+00:00)

STARS - Pass Details

Date: 26 April 2024
Orbit: 604 x 620 km, 98.1° (Epoch: 28 May)

Event Time Altitude Azimuth Distance (km) Brightness Sun altitude
Rises 22:12:44 0° 17° (NNE) 2,894 ? -31.7°
Reaches altitude 10° 22:14:58 10° 22° (NNE) 1,981 ? -31.7°
Enters shadow 22:16:53 25° 33° (NNE) 1,254 ? -31.8°
